Time,TemperatureF,DewpointF,PressureIn,WindDirection,WindDirectionDegrees,WindSpeedMPH,WindSpeedGustMPH,Humidity,HourlyPrecipIn,Conditions,Clouds,dailyrainin,SoftwareType,DateUTC
2013-02-22 00:00:00,23.2,18.5,30.10,WNW,292,0.0,0.0,82,0.00,-SN,,0.00,WeatherDisplay:10.37,2013-02-21 23:00:00,
2013-02-22 00:10:00,23.2,18.5,30.09,WNW,292,0.0,0.0,82,0.00,-SN,,0.00,WeatherDisplay:10.37,2013-02-21 23:10:00,
2013-02-22 00:20:00,23.2,18.5,30.09,WNW,292,0.0,0.0,82,0.00,-SN,,0.00,WeatherDisplay:10.37,2013-02-21 23:20:00,
2013-02-22 00:30:00,23.2,18.5,30.09,WNW,292,0.0,0.0,82,0.00,-SN,,0.00,WeatherDisplay:10.37,2013-02-21 23:30:00,
2013-02-22 00:40:00,23.2,18.2,30.09,WNW,292,0.0,0.0,81,0.00,-SN,,0.00,WeatherDisplay:10.37,2013-02-21 23:40:00,
2013-02-22 00:50:00,23.2,18.2,30.08,WNW,292,0.0,0.0,81,0.00,-SN,,0.00,WeatherDisplay:10.37,2013-02-21 23:50:00,
2013-02-22 01:00:00,23.2,18.2,30.08,WNW,292,0.0,0.0,81,0.00,-SN,,0.00,WeatherDisplay:10.37,2013-02-22 00:00:00,
2013-02-22 01:11:00,23.2,18.2,30.08,WNW,292,0.0,1.0,81,0.00,-SN,,0.00,WeatherDisplay:10.37,2013-02-22 00:11:00,
2013-02-22 01:31:00,23.2,18.5,30.08,WNW,292,1.0,1.0,82,0.00,-SN,,0.00,WeatherDisplay:10.37,2013-02-22 00:31:00,
2013-02-22 01:40:00,23.2,18.5,30.08,WNW,292,0.0,1.0,82,0.00,-SN,,0.00,WeatherDisplay:10.37,2013-02-22 00:40:00,
2013-02-22 01:50:00,23.2,18.5,30.08,WNW,292,0.0,0.0,82,0.00,-SN,,0.00,WeatherDisplay:10.37,2013-02-22 00:50:00,
2013-02-22 02:01:00,23.0,18.3,30.08,WNW,292,0.0,0.0,82,0.00,OVC,,0.00,WeatherDisplay:10.37,2013-02-22 01:01:00,
2013-02-22 02:10:00,22.8,17.9,30.08,WSW,255,0.0,1.0,81,0.00,OVC,,0.00,WeatherDisplay:10.37,2013-02-22 01:10:00,
2013-02-22 02:20:00,22.8,17.6,30.08,North,357,0.0,0.0,80,0.00,OVC,,0.00,WeatherDisplay:10.37,2013-02-22 01:20:00,
2013-02-22 02:30:00,22.6,17.4,30.08,NNW,336,0.0,0.0,80,0.00,BKN,,0.00,WeatherDisplay:10.37,2013-02-22 01:30:00,
2013-02-22 02:40:00,22.6,17.4,30.07,ESE,112,0.0,0.0,80,0.00,BKN,,0.00,WeatherDisplay:10.37,2013-02-22 01:40:00,
2013-02-22 02:51:00,22.6,17.4,30.06,ESE,112,0.0,0.0,80,0.00,BKN,,0.00,WeatherDisplay:10.37,2013-02-22 01:51:00,
2013-02-22 03:00:00,22.5,17.2,30.06,ESE,112,0.0,1.0,80,0.00,-SN,,0.00,WeatherDisplay:10.37,2013-02-22 02:00:00,
2013-02-22 03:10:00,22.5,17.2,30.06,WNW,292,0.0,0.0,80,0.00,-SN,,0.00,WeatherDisplay:10.37,2013-02-22 02:10:00,
2013-02-22 03:21:00,22.3,17.0,30.06,WNW,292,0.0,0.0,80,0.00,OVC,,0.00,WeatherDisplay:10.37,2013-02-22 02:21:00,
2013-02-22 03:30:00,22.3,17.0,30.05,WNW,292,0.0,0.0,80,0.00,OVC,,0.00,WeatherDisplay:10.37,2013-02-22 02:30:00,
2013-02-22 03:40:00,22.3,17.0,30.05,WNW,292,0.0,0.0,80,0.00,OVC,,0.00,WeatherDisplay:10.37,2013-02-22 02:40:00,
2013-02-22 03:51:00,22.1,17.2,30.05,SSE,163,0.0,0.0,81,0.00,-SN,,0.00,WeatherDisplay:10.37,2013-02-22 02:51:00,
2013-02-22 04:00:00,21.9,17.0,30.04,ESE,115,0.0,1.0,81,0.00,-SN,,0.00,WeatherDisplay:10.37,2013-02-22 03:00:00,
2013-02-22 04:11:00,21.9,17.0,30.04,SE,135,0.0,0.0,81,0.00,-SN,,0.00,WeatherDisplay:10.37,2013-02-22 03:11:00,
2013-02-22 04:20:00,21.9,17.3,30.04,SE,135,0.0,0.0,82,0.00,OVC,,0.00,WeatherDisplay:10.37,2013-02-22 03:20:00,
2013-02-22 04:30:00,21.7,17.1,30.04,SE,135,0.0,0.0,82,0.00,OVC,,0.00,WeatherDisplay:10.37,2013-02-22 03:30:00,
2013-02-22 04:40:00,21.6,16.9,30.04,North,353,0.0,0.0,82,0.00,OVC,,0.00,WeatherDisplay:10.37,2013-02-22 03:40:00,
2013-02-22 04:50:00,21.4,16.7,30.04,SSW,202,0.0,0.0,82,0.00,-SN,,0.00,WeatherDisplay:10.37,2013-02-22 03:50:00,
2013-02-22 05:10:00,21.0,16.4,30.04,SSW,197,0.0,0.0,82,0.00,-SN,,0.00,WeatherDisplay:10.37,2013-02-22 04:10:00,
2013-02-22 05:20:00,20.8,16.2,30.04,WSW,253,0.0,0.0,82,0.00,-SN,,0.00,WeatherDisplay:10.37,2013-02-22 04:20:00,
2013-02-22 05:30:00,20.8,16.2,30.04,WNW,285,0.0,0.0,82,0.00,-SN,,0.00,WeatherDisplay:10.37,2013-02-22 04:30:00,
2013-02-22 05:40:00,20.8,16.2,30.03,NW,306,0.0,0.0,82,0.00,-SN,,0.00,WeatherDisplay:10.37,2013-02-22 04:40:00,
2013-02-22 05:50:00,20.5,15.9,30.04,WNW,300,0.0,1.0,82,0.00,-SN,,0.00,WeatherDisplay:10.37,2013-02-22 04:50:00,
2013-02-22 06:00:00,20.5,16.1,30.03,WNW,293,1.0,1.0,83,0.00,-SN,,0.00,WeatherDisplay:10.37,2013-02-22 05:00:00,
2013-02-22 06:10:00,20.5,16.1,30.03,NW,315,0.0,1.0,83,0.00,-SN,,0.00,WeatherDisplay:10.37,2013-02-22 05:10:00,
2013-02-22 06:21:00,20.5,16.1,30.03,NW,304,1.0,1.0,83,0.00,-SN,,0.00,WeatherDisplay:10.37,2013-02-22 05:21:00,
2013-02-22 06:31:00,20.5,16.1,30.03,WNW,294,0.0,1.0,83,0.00,-SN,,0.00,WeatherDisplay:10.37,2013-02-22 05:31:00,
2013-02-22 06:41:00,20.5,16.1,30.03,NW,315,0.0,0.0,83,0.00,-SN,,0.00,WeatherDisplay:10.37,2013-02-22 05:41:00,
2013-02-22 06:50:00,20.5,16.4,30.03,ENE,78,0.0,0.0,84,0.00,-SN,,0.00,WeatherDisplay:10.37,2013-02-22 05:50:00,
2013-02-22 07:00:00,20.5,16.4,30.03,WNW,292,0.0,1.0,84,0.00,-SN,,0.00,WeatherDisplay:10.37,2013-02-22 06:00:00,
2013-02-22 07:11:00,20.5,16.4,30.03,WNW,292,0.0,0.0,84,0.00,OVC,,0.00,WeatherDisplay:10.37,2013-02-22 06:11:00,
2013-02-22 07:20:00,20.5,16.4,30.04,WNW,292,0.0,0.0,84,0.00,OVC,,0.00,WeatherDisplay:10.37,2013-02-22 06:20:00,
2013-02-22 07:30:00,20.5,16.4,30.04,NNW,331,0.0,0.0,84,0.00,OVC,,0.00,WeatherDisplay:10.37,2013-02-22 06:30:00,
2013-02-22 07:40:00,20.5,16.4,30.04,SE,130,1.0,1.0,84,0.00,-SN,,0.00,WeatherDisplay:10.37,2013-02-22 06:40:00,
2013-02-22 07:50:00,20.8,16.8,30.04,WNW,292,0.0,1.0,84,0.00,-SN,,0.00,WeatherDisplay:10.37,2013-02-22 06:50:00,
2013-02-22 08:00:00,20.8,16.8,30.04,WNW,292,1.0,1.0,84,0.00,OVC,,0.00,WeatherDisplay:10.37,2013-02-22 07:00:00,
2013-02-22 08:10:00,20.8,16.5,30.04,WNW,292,0.0,1.0,83,0.00,OVC,,0.00,WeatherDisplay:10.37,2013-02-22 07:10:00,
2013-02-22 08:20:00,20.8,16.5,30.04,WNW,292,3.0,3.0,83,0.00,OVC,,0.00,WeatherDisplay:10.37,2013-02-22 07:20:00,
2013-02-22 08:30:00,21.0,16.7,30.04,WNW,292,0.0,3.0,83,0.00,-SN,,0.00,WeatherDisplay:10.37,2013-02-22 07:30:00,
2013-02-22 08:40:00,21.0,16.7,30.04,WNW,292,1.0,1.0,83,0.00,-SN,,0.00,WeatherDisplay:10.37,2013-02-22 07:40:00,
2013-02-22 08:51:00,21.4,17.0,30.03,NW,304,1.0,1.0,83,0.00,-SN,,0.00,WeatherDisplay:10.37,2013-02-22 07:51:00,
2013-02-22 09:00:00,21.6,16.9,30.03,NW,309,0.0,1.0,82,0.00,-SN,,0.00,WeatherDisplay:10.37,2013-02-22 08:00:00,
2013-02-22 09:10:00,21.7,17.4,30.03,WNW,292,0.0,2.0,83,0.00,-SN,,0.00,WeatherDisplay:10.37,2013-02-22 08:10:00,
2013-02-22 09:20:00,21.9,17.3,30.03,WNW,292,0.0,0.0,82,0.00,-SN,,0.00,WeatherDisplay:10.37,2013-02-22 08:20:00,
2013-02-22 09:30:00,21.9,17.3,30.03,WNW,292,1.0,1.0,82,0.00,-SN,,0.00,WeatherDisplay:10.37,2013-02-22 08:30:00,
2013-02-22 09:40:00,22.5,17.5,30.03,WNW,292,0.0,1.0,81,0.00,-SN,,0.00,WeatherDisplay:10.37,2013-02-22 08:40:00,
2013-02-22 09:50:00,22.6,17.4,30.03,WNW,292,0.0,0.0,80,0.00,-SN,,0.00,WeatherDisplay:10.37,2013-02-22 08:50:00,
2013-02-22 10:01:00,23.0,17.5,30.03,WNW,289,0.0,0.0,79,0.00,-SN,,0.00,WeatherDisplay:10.37,2013-02-22 09:01:00,
2013-02-22 10:10:00,22.6,16.5,30.03,WNW,283,0.0,0.0,77,0.00,-SN,,0.00,WeatherDisplay:10.37,2013-02-22 09:10:00,
2013-02-22 10:20:00,22.8,16.7,30.02,NW,315,1.0,1.0,77,0.00,-SN,,0.00,WeatherDisplay:10.37,2013-02-22 09:20:00,
2013-02-22 10:31:00,23.2,16.4,30.02,NW,307,0.0,1.0,75,0.00,-SN,,0.00,WeatherDisplay:10.37,2013-02-22 09:31:00,
2013-02-22 10:41:00,23.5,16.5,30.02,NW,308,0.0,0.0,74,0.00,-SN,,0.00,WeatherDisplay:10.37,2013-02-22 09:41:00,
2013-02-22 10:50:00,23.7,16.6,30.01,WNW,292,0.0,2.0,74,0.00,-SN,,0.00,WeatherDisplay:10.37,2013-02-22 09:50:00,
2013-02-22 11:01:00,24.4,17.0,30.01,WNW,292,0.0,0.0,73,0.00,-SN,,0.00,WeatherDisplay:10.37,2013-02-22 10:01:00,
2013-02-22 11:10:00,24.6,16.9,30.01,WSW,249,0.0,0.0,72,0.00,-SN,,0.00,WeatherDisplay:10.37,2013-02-22 10:10:00,
2013-02-22 11:20:00,24.4,16.4,30.01,West,277,0.0,0.0,71,0.00,BKN,,0.00,WeatherDisplay:10.37,2013-02-22 10:20:00,
2013-02-22 11:30:00,24.4,16.7,30.00,WNW,295,2.0,2.0,72,0.00,BKN,,0.00,WeatherDisplay:10.37,2013-02-22 10:30:00,
2013-02-22 11:40:00,24.4,17.0,30.00,NW,312,0.0,2.0,73,0.00,BKN,,0.00,WeatherDisplay:10.37,2013-02-22 10:40:00,
2013-02-22 11:50:00,24.4,17.3,30.00,WNW,303,1.0,2.0,74,0.00,SCT,,0.00,WeatherDisplay:10.37,2013-02-22 10:50:00,
2013-02-22 12:00:00,24.6,17.5,29.99,WNW,303,0.0,2.0,74,0.00,SCT,,0.00,WeatherDisplay:10.37,2013-02-22 11:00:00,
2013-02-22 12:10:00,24.6,17.5,29.99,WNW,282,0.0,1.0,74,0.00,SCT,,0.00,WeatherDisplay:10.37,2013-02-22 11:10:00,
2013-02-22 12:21:00,25.0,17.5,29.98,West,270,1.0,1.0,73,0.00,-SN,,0.00,WeatherDisplay:10.37,2013-02-22 11:21:00,
2013-02-22 12:30:00,25.5,18.1,29.98,WNW,292,0.0,1.0,73,0.00,-SN,,0.00,WeatherDisplay:10.37,2013-02-22 11:30:00,
2013-02-22 12:50:00,25.3,19.1,29.97,WSW,246,0.0,2.0,77,0.00,-SN,,0.00,WeatherDisplay:10.37,2013-02-22 11:50:00,
2013-02-22 13:00:00,25.5,19.9,29.96,NNW,343,0.0,0.0,79,0.00,-SN,,0.00,WeatherDisplay:10.37,2013-02-22 12:00:00,
2013-02-22 13:10:00,25.2,20.1,29.95,WNW,292,0.0,4.0,81,0.00,-SN,,0.00,WeatherDisplay:10.37,2013-02-22 12:10:00,
2013-02-22 13:20:00,25.2,20.7,29.95,WNW,292,2.0,2.0,83,0.00,-SN,,0.00,WeatherDisplay:10.37,2013-02-22 12:20:00,
2013-02-22 13:30:00,25.0,20.8,29.95,WNW,295,3.0,4.0,84,0.00,-SN,,0.00,WeatherDisplay:10.37,2013-02-22 12:30:00,
2013-02-22 13:40:00,25.5,20.8,29.95,West,281,2.0,4.0,82,0.00,-SN,,0.00,WeatherDisplay:10.37,2013-02-22 12:40:00,
2013-02-22 13:50:00,25.7,21.3,29.95,WNW,290,0.0,2.0,83,0.00,-SN,,0.00,WeatherDisplay:10.37,2013-02-22 12:50:00,
2013-02-22 14:10:00,26.6,21.3,29.93,WNW,292,0.0,3.0,80,0.00,-SN,,0.00,WeatherDisplay:10.37,2013-02-22 13:10:00,
2013-02-22 14:20:00,27.1,21.2,29.93,NNE,29,0.0,1.0,78,0.00,-SN,,0.00,WeatherDisplay:10.37,2013-02-22 13:20:00,
2013-02-22 14:31:00,27.3,20.8,29.92,East,95,0.0,2.0,76,0.00,-SN,,0.00,WeatherDisplay:10.37,2013-02-22 13:31:00,
2013-02-22 14:40:00,27.7,20.8,29.92,SSE,159,0.0,1.0,75,0.00,-SN,,0.00,WeatherDisplay:10.37,2013-02-22 13:40:00,
2013-02-22 14:50:00,27.7,20.5,29.92,SE,132,0.0,2.0,74,0.00,-SN,,0.00,WeatherDisplay:10.37,2013-02-22 13:50:00,
2013-02-22 15:00:00,27.7,20.5,29.92,SSW,202,0.0,0.0,74,0.00,-SN,,0.00,WeatherDisplay:10.37,2013-02-22 14:00:00,
2013-02-22 15:10:00,27.7,20.8,29.91,West,272,0.0,1.0,75,0.00,BKN,,0.00,WeatherDisplay:10.37,2013-02-22 14:10:00,
2013-02-22 15:31:00,27.3,20.8,29.91,West,277,0.0,0.0,76,0.00,-SN,,0.00,WeatherDisplay:10.37,2013-02-22 14:31:00,
2013-02-22 15:40:00,26.8,21.1,29.91,SE,125,0.0,0.0,79,0.00,-SN,,0.00,WeatherDisplay:10.37,2013-02-22 14:40:00,
2013-02-22 15:50:00,26.8,21.7,29.91,WNW,292,0.0,0.0,81,0.00,-SN,,0.00,WeatherDisplay:10.37,2013-02-22 14:50:00,
2013-02-22 16:00:00,26.6,21.8,29.91,WNW,301,0.0,0.0,82,0.00,BKN,,0.00,WeatherDisplay:10.37,2013-02-22 15:00:00,
2013-02-22 16:11:00,26.2,21.5,29.91,West,278,0.0,0.0,82,0.00,-SN,,0.00,WeatherDisplay:10.37,2013-02-22 15:11:00,
2013-02-22 16:20:00,26.1,21.3,29.91,SE,129,0.0,0.0,82,0.00,-SN,,0.00,WeatherDisplay:10.37,2013-02-22 15:20:00,
2013-02-22 16:31:00,25.9,21.7,29.91,West,281,0.0,0.0,84,0.00,-SN,,0.00,WeatherDisplay:10.37,2013-02-22 15:31:00,
2013-02-22 16:40:00,25.7,21.8,29.91,WSW,249,0.0,0.0,85,0.00,-SN,,0.00,WeatherDisplay:10.37,2013-02-22 15:40:00,
2013-02-22 16:50:00,25.5,21.6,29.91,SE,146,0.0,0.0,85,0.00,-SN,,0.00,WeatherDisplay:10.37,2013-02-22 15:50:00,
2013-02-22 17:00:00,25.0,21.4,29.91,SW,236,0.0,0.0,86,0.00,-SN,,0.00,WeatherDisplay:10.37,2013-02-22 16:00:00,
2013-02-22 17:10:00,25.2,21.6,29.91,SE,125,1.0,2.0,86,0.00,-SN,,0.00,WeatherDisplay:10.37,2013-02-22 16:10:00,
2013-02-22 17:20:00,25.2,21.6,29.90,ESE,121,29.0,62.0,86,0.00,-SN,,0.00,WeatherDisplay:10.37,2013-02-22 16:20:00,
2013-02-22 17:30:00,25.0,21.4,29.91,WSW,249,1.0,57.0,86,0.00,BKN,,0.00,WeatherDisplay:10.37,2013-02-22 16:30:00,
2013-02-22 17:50:00,24.8,21.2,29.91,WNW,292,0.0,1.0,86,0.00,BKN,,0.00,WeatherDisplay:10.37,2013-02-22 16:50:00,
2013-02-22 18:01:00,24.6,21.0,29.91,WNW,287,0.0,0.0,86,0.00,OVC,,0.00,WeatherDisplay:10.37,2013-02-22 17:01:00,
2013-02-22 18:20:00,24.6,21.3,29.91,ESE,121,0.0,0.0,87,0.00,OVC,,0.00,WeatherDisplay:10.37,2013-02-22 17:20:00,
2013-02-22 18:31:00,24.6,21.3,29.91,South,169,0.0,0.0,87,0.00,-SN,,0.00,WeatherDisplay:10.37,2013-02-22 17:31:00,
2013-02-22 18:41:00,24.6,21.3,29.91,WNW,292,1.0,1.0,87,0.00,-SN,,0.00,WeatherDisplay:10.37,2013-02-22 17:41:00,
2013-02-22 18:50:00,24.6,21.3,29.92,North,3,1.0,1.0,87,0.00,-SN,,0.00,WeatherDisplay:10.37,2013-02-22 17:50:00,
2013-02-22 19:00:00,24.4,21.1,29.92,SW,225,0.0,1.0,87,0.00,OVC,,0.00,WeatherDisplay:10.37,2013-02-22 18:00:00,
2013-02-22 19:10:00,24.6,21.3,29.92,ESE,112,0.0,0.0,87,0.00,OVC,,0.00,WeatherDisplay:10.37,2013-02-22 18:10:00,
2013-02-22 19:21:00,24.6,21.3,29.92,WNW,292,0.0,0.0,87,0.00,OVC,,0.00,WeatherDisplay:10.37,2013-02-22 18:21:00,
2013-02-22 19:30:00,24.6,21.6,29.92,WNW,292,0.0,0.0,88,0.00,OVC,,0.00,WeatherDisplay:10.37,2013-02-22 18:30:00,
2013-02-22 19:40:00,24.6,21.6,29.92,WNW,290,0.0,2.0,88,0.00,OVC,,0.00,WeatherDisplay:10.37,2013-02-22 18:40:00,
2013-02-22 19:50:00,24.6,21.6,29.92,WSW,242,0.0,0.0,88,0.00,OVC,,0.00,WeatherDisplay:10.37,2013-02-22 18:50:00,
2013-02-22 20:00:00,24.6,21.6,29.92,WSW,238,0.0,0.0,88,0.00,OVC,,0.00,WeatherDisplay:10.37,2013-02-22 19:00:00,
2013-02-22 20:10:00,24.6,21.6,29.92,WNW,290,0.0,0.0,88,0.00,OVC,,0.00,WeatherDisplay:10.37,2013-02-22 19:10:00,
2013-02-22 20:20:00,24.6,21.6,29.92,WNW,292,0.0,0.0,88,0.00,OVC,,0.00,WeatherDisplay:10.37,2013-02-22 19:20:00,
2013-02-22 20:40:00,24.4,21.4,29.91,WNW,292,0.0,0.0,88,0.00,OVC,,0.00,WeatherDisplay:10.37,2013-02-22 19:40:00,
2013-02-22 20:51:00,24.4,21.4,29.91,WNW,292,0.0,0.0,88,0.00,BKN,,0.00,WeatherDisplay:10.37,2013-02-22 19:51:00,
2013-02-22 21:00:00,24.4,21.4,29.91,WNW,292,1.0,1.0,88,0.00,-SN,,0.00,WeatherDisplay:10.37,2013-02-22 20:00:00,
2013-02-22 21:10:00,24.4,21.4,29.91,WNW,289,1.0,1.0,88,0.00,-SN,,0.00,WeatherDisplay:10.37,2013-02-22 20:10:00,
2013-02-22 21:20:00,24.4,21.4,29.91,SE,138,0.0,1.0,88,0.00,-SN,,0.00,WeatherDisplay:10.37,2013-02-22 20:20:00,
2013-02-22 21:30:00,24.4,21.4,29.91,WSW,258,0.0,0.0,88,0.00,-SN,,0.00,WeatherDisplay:10.37,2013-02-22 20:30:00,
2013-02-22 21:40:00,24.4,21.4,29.91,WNW,292,2.0,2.0,88,0.00,-SN,,0.00,WeatherDisplay:10.37,2013-02-22 20:40:00,
2013-02-22 21:51:00,24.4,21.4,29.91,WNW,292,0.0,2.0,88,0.00,-SN,,0.00,WeatherDisplay:10.37,2013-02-22 20:51:00,
2013-02-22 22:00:00,24.4,21.7,29.91,WNW,292,0.0,1.0,89,0.00,OVC,,0.00,WeatherDisplay:10.37,2013-02-22 21:00:00,
2013-02-22 22:10:00,24.4,21.7,29.91,WNW,292,0.0,0.0,89,0.00,-SN,,0.00,WeatherDisplay:10.37,2013-02-22 21:10:00,
2013-02-22 22:21:00,24.4,21.7,29.91,NW,305,0.0,0.0,89,0.00,-SN,,0.00,WeatherDisplay:10.37,2013-02-22 21:21:00,
2013-02-22 22:30:00,24.4,21.7,29.91,NW,310,0.0,0.0,89,0.00,-SN,,0.00,WeatherDisplay:10.37,2013-02-22 21:30:00,
2013-02-22 22:40:00,24.1,21.3,29.91,WNW,292,0.0,0.0,89,0.00,-SN,,0.00,WeatherDisplay:10.37,2013-02-22 21:40:00,
2013-02-22 22:50:00,24.1,21.3,29.90,WNW,292,0.0,0.0,89,0.00,-SN,,0.00,WeatherDisplay:10.37,2013-02-22 21:50:00,
2013-02-22 23:00:00,24.1,21.3,29.90,WNW,292,0.0,0.0,89,0.00,-SN,,0.00,WeatherDisplay:10.37,2013-02-22 22:00:00,
2013-02-22 23:10:00,24.1,21.3,29.90,WNW,286,0.0,0.0,89,0.00,-SN,,0.00,WeatherDisplay:10.37,2013-02-22 22:10:00,
2013-02-22 23:20:00,24.1,21.3,29.90,WNW,292,0.0,0.0,89,0.00,-SN,,0.00,WeatherDisplay:10.37,2013-02-22 22:20:00,
2013-02-22 23:31:00,24.1,21.3,29.90,WNW,292,0.0,0.0,89,0.00,-SN,,0.00,WeatherDisplay:10.37,2013-02-22 22:31:00,
2013-02-22 23:40:00,24.1,21.3,29.90,WNW,292,0.0,1.0,89,0.00,-SN,,0.00,WeatherDisplay:10.37,2013-02-22 22:40:00,
2013-02-22 23:50:00,24.1,21.3,29.89,WNW,292,1.0,1.0,89,0.00,-SN,,0.00,WeatherDisplay:10.37,2013-02-22 22:50:00,